This is the latest recevied weather packets stored in our database for station/object N3WMC. If no packets are shown the sender has not sent any weather packets the latest 10 day(s).
| Time | Temp. | Humidity | Pressure | Rain* | Wind** | Luminosity | Snow |
|---|---|---|---|---|---|---|---|
| 1777855852 | 11.67° C | 49% | 1014.4 hPa | 0 mm | - | 0 W/m² | - |
| 1777855550 | 11.67° C | 46% | 1014.4 hPa | 0 mm | - | 0 W/m² | - |
| 1777855247 | 11.67° C | 45% | 1014.3 hPa | 0 mm | - | 0 W/m² | - |
| 1777854943 | 12.22° C | 44% | 1014.4 hPa | 0 mm | - | 0 W/m² | - |
| 1777854640 | 12.22° C | 44% | 1014.3 hPa | 0 mm | - | 0 W/m² | - |
| 1777854337 | 12.22° C | 43% | 1014.3 hPa | 0 mm | - | 1 W/m² | - |
| 1777854034 | 12.78° C | 43% | 1014.2 hPa | 0 mm | - | 2 W/m² | - |
| 1777853732 | 12.78° C | 43% | 1014.4 hPa | 0 mm | - | 3 W/m² | - |
| 1777853428 | 12.78° C | 42% | 1014.4 hPa | 0 mm | - | 4 W/m² | - |
| 1777853125 | 12.78° C | 42% | 1014 hPa | 0 mm | - | 7 W/m² | - |
| 1777852823 | 13.33° C | 41% | 1014.3 hPa | 0 mm | - | 9 W/m² | - |
| 1777852521 | 13.33° C | 41% | 1014.3 hPa | 0 mm | - | 11 W/m² | - |
| 1777852217 | 13.33° C | 41% | 1014 hPa | 0 mm | - | 15 W/m² | - |
| 1777851915 | 13.33° C | 40% | 1014.1 hPa | 0 mm | - | 16 W/m² | - |
| 1777851613 | 13.89° C | 41% | 1014.5 hPa | 0 mm | - | 18 W/m² | - |
| 1777851309 | 13.89° C | 40% | 1014.2 hPa | 0 mm | - | 23 W/m² | - |
| 1777851005 | 13.89° C | 40% | 1014.3 hPa | 0 mm | - | 31 W/m² | - |
| 1777850702 | 13.89° C | 39% | 1014.3 hPa | 0 mm | - | 33 W/m² | - |
| 1777850400 | 14.44° C | 38% | 1014.2 hPa | 0 mm | - | 33 W/m² | - |
| 1777850097 | 14.44° C | 39% | 1014.3 hPa | 0 mm | - | 43 W/m² | - |
| 1777849794 | 14.44° C | 38% | 1014.1 hPa | 0 mm | - | 54 W/m² | - |
| 1777849490 | 14.44° C | 38% | 1014.2 hPa | 0 mm | - | 71 W/m² | - |
| 1777849188 | 14.44° C | 38% | 1014.4 hPa | 0 mm | - | 54 W/m² | - |
| 1777848885 | 14.44° C | 38% | 1014.3 hPa | 0 mm | - | 51 W/m² | - |
| 1777848580 | 14.44° C | 38% | 1014.3 hPa | 0 mm | - | 70 W/m² | - |
* Rain latest hour (hover to see other rain measurements)
** Current wind speed in m/s (hover to see current wind gust speed)